EN

Hourly Weather Acapetagua

Today, 29 November, Sunday

Time Temperature Precipitation Wind Pressure Humidity
00:00 +26°C° 0 mm 1 mps 757 mmHg 90%
01:00 +26°C° 0.2 mm 1 mps 757 mmHg 89%
02:00 +26°C° 0.2 mm 1 mps 756 mmHg 89%
03:00 +26°C° 0.2 mm 1 mps 756 mmHg 88%
04:00 +26°C° 0 mm 1 mps 756 mmHg 88%
05:00 +26°C° 0 mm 1 mps 756 mmHg 87%
06:00 +26°C° 0 mm 1 mps 757 mmHg 86%
07:00 +27°C° 0 mm 1 mps 757 mmHg 82%
08:00 +27°C° 0 mm 0 mps 758 mmHg 77%
09:00 +28°C° 0 mm 0 mps 758 mmHg 72%
10:00 +31°C° 0.2 mm 1 mps 758 mmHg 72%
11:00 +31°C° 0.2 mm 1 mps 757 mmHg 72%
12:00 +32°C° 0.2 mm 2 mps 757 mmHg 72%
13:00 +31°C° 0.5 mm 1 mps 756 mmHg 74%
14:00 +31°C° 0.5 mm 1 mps 756 mmHg 75%
15:00 +31°C° 0.5 mm 1 mps 755 mmHg 77%
16:00 +30°C° 0.6 mm 1 mps 756 mmHg 81%
17:00 +28°C° 0.6 mm 1 mps 756 mmHg 85%
18:00 +25°C° 0.6 mm 0 mps 757 mmHg 89%
19:00 +27°C° 0 mm 1 mps 757 mmHg 88%
20:00 +27°C° 0 mm 1 mps 758 mmHg 88%
21:00 +26°C° 0 mm 1 mps 759 mmHg 88%
22:00 +26°C° 0 mm 1 mps 759 mmHg 88%
23:00 +26°C° 0 mm 1 mps 759 mmHg 88%

Tomorrow, 30 November, Monday

Time Temperature Precipitation Wind Pressure Humidity
00:00 +26°C° 0 mm 1 mps 759 mmHg 88%
01:00 +26°C° 0 mm 1 mps 758 mmHg 87%
02:00 +26°C° 0 mm 1 mps 758 mmHg 87%
03:00 +25°C° 0 mm 1 mps 757 mmHg 86%
04:00 +26°C° 0 mm 1 mps 757 mmHg 85%
05:00 +26°C° 0 mm 1 mps 758 mmHg 84%
06:00 +26°C° 0 mm 1 mps 758 mmHg 84%
07:00 +27°C° 0 mm 1 mps 758 mmHg 80%
08:00 +29°C° 0 mm 1 mps 759 mmHg 76%
09:00 +28°C° 0 mm 0 mps 759 mmHg 72%
10:00 +31°C° 0 mm 1 mps 758 mmHg 68%
11:00 +32°C° 0 mm 1 mps 758 mmHg 65%
12:00 +34°C° 0 mm 2 mps 758 mmHg 61%
13:00 +32°C° 0.1 mm 2 mps 757 mmHg 64%
14:00 +32°C° 0.1 mm 2 mps 756 mmHg 67%
15:00 +32°C° 0.1 mm 2 mps 755 mmHg 70%
16:00 +30°C° 0.4 mm 1 mps 756 mmHg 76%
17:00 +29°C° 0.4 mm 1 mps 756 mmHg 81%
18:00 +27°C° 0.4 mm 1 mps 757 mmHg 87%
19:00 +27°C° 0.2 mm 1 mps 758 mmHg 86%
20:00 +26°C° 0.2 mm 1 mps 758 mmHg 85%
21:00 +26°C° 0.2 mm 2 mps 759 mmHg 84%
22:00 +26°C° 0 mm 2 mps 759 mmHg 83%
23:00 +26°C° 0 mm 2 mps 759 mmHg 82%

Day after tomorrow, 1 December, Tuesday

Time Temperature Precipitation Wind Pressure Humidity
00:00 +26°C° 0 mm 2 mps 759 mmHg 81%
01:00 +26°C° 0 mm 2 mps 758 mmHg 80%
02:00 +26°C° 0 mm 2 mps 758 mmHg 79%
03:00 +25°C° 0 mm 1 mps 758 mmHg 79%
04:00 +25°C° 0 mm 2 mps 758 mmHg 78%
05:00 +25°C° 0 mm 2 mps 758 mmHg 78%
06:00 +25°C° 0 mm 2 mps 759 mmHg 78%
07:00 +27°C° 0 mm 2 mps 759 mmHg 74%
08:00 +28°C° 0 mm 1 mps 759 mmHg 69%
09:00 +29°C° 0 mm 1 mps 760 mmHg 65%
10:00 +30°C° 0 mm 1 mps 759 mmHg 61%
11:00 +32°C° 0 mm 1 mps 759 mmHg 57%
12:00 +34°C° 0 mm 2 mps 758 mmHg 54%
13:00 +32°C° 0 mm 2 mps 757 mmHg 56%
14:00 +32°C° 0 mm 2 mps 757 mmHg 58%
15:00 +32°C° 0 mm 2 mps 756 mmHg 60%
16:00 +30°C° 0 mm 1 mps 756 mmHg 67%
17:00 +28°C° 0 mm 1 mps 756 mmHg 73%
18:00 +25°C° 0 mm 0 mps 757 mmHg 80%
19:00 +26°C° 0 mm 1 mps 757 mmHg 78%
20:00 +26°C° 0 mm 1 mps 758 mmHg 77%
21:00 +26°C° 0 mm 2 mps 758 mmHg 75%
22:00 +25°C° 0 mm 2 mps 758 mmHg 74%
23:00 +25°C° 0 mm 1 mps 758 mmHg 73%

2 December, Wednesday

Time Temperature Precipitation Wind Pressure Humidity
00:00 +25°C° 0 mm 1 mps 758 mmHg 73%
01:00 +25°C° 0 mm 1 mps 758 mmHg 72%
02:00 +25°C° 0 mm 1 mps 757 mmHg 71%
03:00 +25°C° 0 mm 1 mps 757 mmHg 70%
04:00 +25°C° 0 mm 1 mps 757 mmHg 70%
05:00 +24°C° 0 mm 1 mps 757 mmHg 69%
06:00 +24°C° 0 mm 1 mps 758 mmHg 69%
07:00 +26°C° 0 mm 1 mps 758 mmHg 65%
08:00 +28°C° 0 mm 1 mps 758 mmHg 61%
09:00 +30°C° 0 mm 1 mps 758 mmHg 57%
10:00 +31°C° 0 mm 1 mps 758 mmHg 56%
11:00 +32°C° 0 mm 1 mps 757 mmHg 55%
12:00 +33°C° 0 mm 1 mps 757 mmHg 54%
13:00 +32°C° 0.1 mm 2 mps 756 mmHg 57%
14:00 +32°C° 0.1 mm 2 mps 756 mmHg 61%
15:00 +31°C° 0.1 mm 2 mps 755 mmHg 65%
16:00 +30°C° 0.1 mm 2 mps 756 mmHg 72%
17:00 +28°C° 0.1 mm 1 mps 756 mmHg 78%
18:00 +27°C° 0.1 mm 1 mps 756 mmHg 85%
19:00 +26°C° 0 mm 1 mps 757 mmHg 84%
20:00 +26°C° 0 mm 1 mps 758 mmHg 82%
21:00 +25°C° 0 mm 1 mps 758 mmHg 80%
22:00 +25°C° 0 mm 1 mps 758 mmHg 79%
23:00 +25°C° 0 mm 1 mps 758 mmHg 77%

3 December, Thursday

Time Temperature Precipitation Wind Pressure Humidity
00:00 +25°C° 0 mm 1 mps 758 mmHg 75%
01:00 +25°C° 0 mm 1 mps 757 mmHg 75%
02:00 +25°C° 0 mm 1 mps 757 mmHg 74%
03:00 +24°C° 0 mm 1 mps 757 mmHg 73%
04:00 +24°C° 0 mm 1 mps 757 mmHg 73%
05:00 +24°C° 0 mm 1 mps 757 mmHg 72%
06:00 +24°C° 0 mm 1 mps 757 mmHg 71%
07:00 +26°C° 0 mm 1 mps 758 mmHg 68%
08:00 +28°C° 0 mm 1 mps 758 mmHg 64%
09:00 +28°C° 0 mm 0 mps 758 mmHg 60%
10:00 +31°C° 0 mm 1 mps 758 mmHg 59%
11:00 +32°C° 0 mm 1 mps 757 mmHg 57%
12:00 +33°C° 0 mm 1 mps 756 mmHg 55%
13:00 +32°C° 0 mm 1 mps 756 mmHg 57%
14:00 +32°C° 0 mm 1 mps 756 mmHg 60%
15:00 +32°C° 0 mm 1 mps 755 mmHg 62%
16:00 +30°C° 0.2 mm 1 mps 756 mmHg 70%
17:00 +28°C° 0.2 mm 1 mps 756 mmHg 78%
18:00 +27°C° 0.2 mm 1 mps 757 mmHg 85%
19:00 +27°C° 0 mm 1 mps 757 mmHg 85%
20:00 +26°C° 0 mm 1 mps 758 mmHg 84%
21:00 +26°C° 0 mm 1 mps 758 mmHg 83%
22:00 +26°C° 0 mm 1 mps 758 mmHg 83%
23:00 +26°C° 0 mm 1 mps 758 mmHg 82%

4 December, Friday

Time Temperature Precipitation Wind Pressure Humidity
00:00 +26°C° 0 mm 1 mps 758 mmHg 81%
01:00 +26°C° 0 mm 1 mps 758 mmHg 80%
02:00 +26°C° 0 mm 1 mps 757 mmHg 79%
03:00 +26°C° 0 mm 2 mps 757 mmHg 78%
04:00 +26°C° 0 mm 2 mps 757 mmHg 78%
05:00 +26°C° 0 mm 1 mps 757 mmHg 77%
06:00 +26°C° 0 mm 1 mps 757 mmHg 77%
07:00 +27°C° 0 mm 1 mps 758 mmHg 73%
08:00 +29°C° 0 mm 1 mps 758 mmHg 70%
09:00 +30°C° 0 mm 1 mps 758 mmHg 67%
10:00 +31°C° 0 mm 1 mps 758 mmHg 64%
11:00 +32°C° 0 mm 1 mps 757 mmHg 61%
12:00 +34°C° 0 mm 2 mps 757 mmHg 58%
13:00 +34°C° 0.1 mm 2 mps 757 mmHg 60%
14:00 +32°C° 0.1 mm 2 mps 756 mmHg 62%
15:00 +32°C° 0.1 mm 2 mps 755 mmHg 64%
16:00 +31°C° 0.3 mm 2 mps 756 mmHg 71%
17:00 +29°C° 0.3 mm 2 mps 756 mmHg 77%
18:00 +28°C° 0.3 mm 2 mps 757 mmHg 84%
19:00 +27°C° 0.4 mm 2 mps 757 mmHg 84%
20:00 +27°C° 0.4 mm 2 mps 758 mmHg 84%
21:00 +27°C° 0.4 mm 2 mps 759 mmHg 84%
22:00 +26°C° 0.1 mm 2 mps 759 mmHg 83%
23:00 +26°C° 0.1 mm 2 mps 759 mmHg 82%
Show more